Weather History for PADU - November, 2013

Change the Weather History Date:

Monday, November 4, 2013

  Actual Average Record
Temperature  
Mean Temperature 41 °F -  
Max Temperature 45 °F 45 °F - (-1)
Min Temperature 37 °F 33 °F - (-1)
Degree Days  
Heating Degree Days 24    
Moisture  
Dew Point 34 °F    
Average Humidity 75    
Maximum Humidity 83    
Minimum Humidity 65    
Precipitation  
Precipitation 0.05 in - - ()
Sea Level Pressure  
Sea Level Pressure 29.86 in    
Wind  
Wind Speed 20 mph (WNW)    
Max Wind Speed 30 mph    
Max Gust Speed 39 mph    
Visibility 9 miles    
Events Rain    
Averages and records for this station are not official NWS values.
T = Trace of Precipitation, MM = Missing Value Source: NWS Daily Summary

Daily Weather History Graph

Daily Weather History Graph

Search for Another Location

Airport or City:

Trip Planner

Search our weather history database for the weather conditions in past years. The results will help you decide how hot, cold, wet, or windy it might be!

Date:

Astronomy

Nov. 04, 2013 Rise Set
Actual Time 9:13 AM AKST 6:25 PM AKST
Civil Twilight 8:35 AM AKST 7:03 PM AKST
Nautical Twilight 7:53 AM AKST 7:45 PM AKST
Astronomical Twilight 7:12 AM AKST 8:26 PM AKST
Moon 10:49 AM AKST (11/4) 7:29 PM AKST (11/4)
Length of Visible Light 10h 27m
Length of Day
9h 12m
New Moon, 2% of the Moon is Illuminated
Nov 4
New Moon
Nov 9
First Quarter
Nov 17
Full
Nov 25
Last Quarter
Dec 2
New

Hourly Weather History & Observations

Time (AKST) Temp. Windchill Dew Point Humidity Pressure Visibility Wind Dir Wind Speed Gust Speed Precip Events Conditions
12:56 AM 45.0 °F 37.6 °F 36.0 °F 71% 29.42 in 10.0 mi West 17.3 mph - N/A   Overcast
1:18 AM 44.6 °F 35.7 °F 35.6 °F 71% 29.43 in 10.0 mi West 24.2 mph - N/A   Overcast
1:56 AM 45.0 °F 36.9 °F 36.0 °F 71% 29.47 in 10.0 mi West 20.7 mph 24.2 mph N/A   Overcast
2:56 AM 44.1 °F 37.1 °F 37.0 °F 76% 29.51 in 10.0 mi West 15.0 mph - 0.00 in Rain Light Rain
3:56 AM 43.0 °F 34.8 °F 37.9 °F 82% 29.55 in 10.0 mi West 18.4 mph 31.1 mph 0.00 in Rain Light Rain
4:56 AM 43.0 °F 33.5 °F 37.0 °F 80% 29.59 in 10.0 mi West 24.2 mph 35.7 mph 0.00 in Rain Light Rain
5:56 AM 42.1 °F 33.1 °F 35.1 °F 76% 29.65 in 10.0 mi West 20.7 mph 26.5 mph 0.00 in Rain Light Rain
6:56 AM 41.0 °F 31.6 °F 36.0 °F 82% 29.69 in 5.0 mi West 20.7 mph 35.7 mph 0.01 in Rain Light Rain
7:56 AM 41.0 °F 32.8 °F 34.0 °F 76% 29.73 in 8.0 mi WNW 16.1 mph 33.4 mph 0.01 in Rain Light Rain
8:56 AM 41.0 °F 30.9 °F 35.1 °F 79% 29.78 in 7.0 mi NW 24.2 mph 33.4 mph 0.00 in Rain Light Rain
9:56 AM 41.0 °F 30.7 °F 34.0 °F 76% 29.82 in 10.0 mi NNW 25.3 mph 32.2 mph 0.00 in Rain Light Rain
10:50 AM 41.0 °F 31.9 °F 32.0 °F 70% 29.85 in 10.0 mi NW 19.6 mph 31.1 mph 0.00 in   Overcast
10:56 AM 41.0 °F 30.7 °F 33.1 °F 73% 29.87 in 10.0 mi NNW 25.3 mph 34.5 mph 0.00 in   Overcast
11:09 AM 39.2 °F 29.0 °F 33.8 °F 81% 29.87 in 9.0 mi WNW 21.9 mph 33.4 mph 0.00 in Rain Light Rain
11:56 AM 39.9 °F 28.8 °F 30.9 °F 70% 29.91 in 10.0 mi NW 27.6 mph 39.1 mph 0.00 in   Mostly Cloudy
12:56 PM 39.9 °F 29.5 °F 30.9 °F 70% 29.95 in 7.0 mi NW 24.2 mph 36.8 mph 0.00 in Rain Light Rain
1:42 PM 39.2 °F 29.0 °F 32.0 °F 75% 29.94 in 10.0 mi NW 21.9 mph 31.1 mph 0.00 in Rain Light Rain
1:56 PM 39.0 °F 28.8 °F 32.0 °F 76% 29.97 in 10.0 mi NNW 21.9 mph 29.9 mph 0.00 in   Overcast
2:56 PM 39.9 °F 28.4 °F 32.0 °F 73% 29.99 in 7.0 mi NW 29.9 mph 34.5 mph 0.00 in Rain Light Rain
5:55 PM 41.0 °F 31.1 °F 30.2 °F 65% 30.04 in 10.0 mi NW 23.0 mph 28.8 mph N/A   Overcast
6:59 PM 39.2 °F 29.3 °F 30.2 °F 70% 30.07 in 10.0 mi NW 20.7 mph 26.5 mph N/A Rain Light Rain
7:58 PM 41.0 °F 33.9 °F 30.2 °F 65% 30.10 in 10.0 mi NNW 12.7 mph - N/A   Overcast
9:56 PM 37.9 °F 30.9 °F 33.1 °F 83% 30.19 in 9.0 mi NW 10.4 mph - 0.03 in Rain Light Rain
10:15 PM 39.2 °F 35.0 °F 33.8 °F 81% 30.18 in 10.0 mi WNW 5.8 mph - 0.00 in Rain Light Rain
10:36 PM 39.2 °F 33.0 °F 33.8 °F 81% 30.19 in 8.0 mi West 9.2 mph - 0.00 in Rain Light Rain
10:56 PM 39.9 °F 32.1 °F 32.0 °F 73% 30.22 in 10.0 mi WNW 13.8 mph 18.4 mph 0.00 in   Mostly Cloudy
11:56 PM 39.0 °F 31.8 °F 33.1 °F 79% 30.23 in 6.0 mi NNW 11.5 mph - 0.00 in Rain Light Rain